Time,TemperatureF,DewpointF,PressureIn,WindDirection,WindDirectionDegrees,WindSpeedMPH,WindSpeedGustMPH,Humidity,HourlyPrecipIn,Conditions,Clouds,dailyrainin,SoftwareType,DateUTC
2014-01-01 00:01:00,9.9,5.5,30.27,West,261,3.0,3.0,82,0.00,,,0.00,Wunderground v.1.15,2014-01-01 05:01:00,
2014-01-01 00:02:00,9.8,5.4,30.27,West,261,3.0,3.0,82,0.00,,,0.00,Wunderground v.1.15,2014-01-01 05:02:00,
2014-01-01 00:05:00,9.7,5.6,30.27,SSW,201,2.0,4.0,83,0.00,,,0.00,Wunderground v.1.15,2014-01-01 05:05:00,
2014-01-01 00:07:00,9.7,5.6,30.27,WNW,300,2.0,4.0,83,0.00,,,0.00,Wunderground v.1.15,2014-01-01 05:07:00,
2014-01-01 00:08:00,9.7,5.6,30.27,West,274,2.0,4.0,83,0.00,,,0.00,Wunderground v.1.15,2014-01-01 05:08:00,
2014-01-01 00:10:00,9.6,5.5,30.27,WNW,295,2.0,2.0,83,0.00,,,0.00,Wunderground v.1.15,2014-01-01 05:10:00,
2014-01-01 00:15:00,9.6,5.7,30.27,WNW,294,3.0,5.0,84,0.00,,,0.00,Wunderground v.1.15,2014-01-01 05:15:00,
2014-01-01 00:21:00,9.6,5.7,30.27,NNW,328,3.0,3.0,84,0.00,,,0.00,Wunderground v.1.15,2014-01-01 05:21:00,
2014-01-01 00:26:00,9.6,5.7,30.27,WNW,302,4.0,7.0,84,0.00,,,0.00,Wunderground v.1.15,2014-01-01 05:26:00,
2014-01-01 00:31:00,9.5,5.6,30.27,SSW,197,4.0,6.0,84,0.00,,,0.00,Wunderground v.1.15,2014-01-01 05:31:00,
2014-01-01 00:36:00,9.5,5.6,30.27,WNW,293,4.0,8.0,84,0.00,,,0.00,Wunderground v.1.15,2014-01-01 05:36:00,
2014-01-01 00:43:00,9.5,5.6,30.28,West,276,3.0,7.0,84,0.00,,,0.00,Wunderground v.1.15,2014-01-01 05:43:00,
2014-01-01 00:44:00,9.6,5.7,30.28,West,265,4.0,8.0,84,0.00,,,0.00,Wunderground v.1.15,2014-01-01 05:44:00,
2014-01-01 00:49:00,9.6,5.7,30.28,WNW,287,4.0,8.0,84,0.00,,,0.00,Wunderground v.1.15,2014-01-01 05:49:00,
2014-01-01 00:54:00,9.6,5.7,30.28,WNW,283,3.0,4.0,84,0.00,,,0.00,Wunderground v.1.15,2014-01-01 05:54:00,
2014-01-01 01:00:00,9.7,6.1,30.28,NW,326,3.0,5.0,85,0.00,,,0.00,Wunderground v.1.15,2014-01-01 06:00:00,
2014-01-01 01:05:00,9.7,6.1,30.28,NW,308,3.0,3.0,85,0.00,,,0.00,Wunderground v.1.15,2014-01-01 06:05:00,
2014-01-01 01:10:00,9.7,6.4,30.28,WSW,250,2.0,3.0,86,0.00,,,0.00,Wunderground v.1.15,2014-01-01 06:10:00,
2014-01-01 01:15:00,9.8,6.5,30.29,SW,217,3.0,5.0,86,0.00,,,0.00,Wunderground v.1.15,2014-01-01 06:15:00,
2014-01-01 01:20:00,9.8,6.5,30.29,West,280,4.0,5.0,86,0.00,,,0.00,Wunderground v.1.15,2014-01-01 06:20:00,
2014-01-01 01:23:00,9.9,6.6,30.29,West,262,4.0,5.0,86,0.00,,,0.00,Wunderground v.1.15,2014-01-01 06:23:00,
2014-01-01 01:28:00,9.9,6.6,30.30,SW,229,4.0,5.0,86,0.00,,,0.00,Wunderground v.1.15,2014-01-01 06:28:00,
2014-01-01 01:33:00,9.9,6.3,30.30,WSW,242,4.0,7.0,85,0.00,,,0.00,Wunderground v.1.15,2014-01-01 06:33:00,
2014-01-01 01:39:00,9.8,6.2,30.30,WSW,254,3.0,7.0,85,0.00,,,0.00,Wunderground v.1.15,2014-01-01 06:39:00,
2014-01-01 01:44:00,9.9,6.3,30.30,West,281,4.0,4.0,85,0.00,,,0.00,Wunderground v.1.15,2014-01-01 06:44:00,
2014-01-01 01:49:00,9.8,6.5,30.30,West,277,3.0,6.0,86,0.00,,,0.00,Wunderground v.1.15,2014-01-01 06:49:00,
2014-01-01 01:54:00,9.8,6.5,30.30,WSW,250,3.0,5.0,86,0.00,,,0.00,Wunderground v.1.15,2014-01-01 06:54:00,
2014-01-01 01:59:00,9.8,6.5,30.31,West,264,3.0,8.0,86,0.00,,,0.00,Wunderground v.1.15,2014-01-01 06:59:00,
2014-01-01 02:05:00,9.8,6.5,30.31,West,269,3.0,3.0,86,0.00,,,0.00,Wunderground v.1.15,2014-01-01 07:05:00,
2014-01-01 02:10:00,9.8,6.2,30.31,WSW,256,2.0,4.0,85,0.00,,,0.00,Wunderground v.1.15,2014-01-01 07:10:00,
2014-01-01 02:15:00,9.8,6.2,30.31,SW,221,3.0,5.0,85,0.00,,,0.00,Wunderground v.1.15,2014-01-01 07:15:00,
2014-01-01 02:20:00,9.7,6.1,30.31,SW,225,3.0,3.0,85,0.00,,,0.00,Wunderground v.1.15,2014-01-01 07:20:00,
2014-01-01 02:25:00,9.7,6.1,30.31,South,191,4.0,7.0,85,0.00,,,0.00,Wunderground v.1.15,2014-01-01 07:25:00,
2014-01-01 02:31:00,9.5,5.6,30.31,WNW,287,3.0,3.0,84,0.00,,,0.00,Wunderground v.1.15,2014-01-01 07:31:00,
2014-01-01 02:36:00,9.4,5.5,30.32,SW,229,3.0,3.0,84,0.00,,,0.00,Wunderground v.1.15,2014-01-01 07:36:00,
2014-01-01 02:41:00,9.4,5.5,30.31,NW,315,3.0,5.0,84,0.00,,,0.00,Wunderground v.1.15,2014-01-01 07:41:00,
2014-01-01 02:46:00,9.5,5.6,30.32,NW,314,3.0,6.0,84,0.00,,,0.00,Wunderground v.1.15,2014-01-01 07:46:00,
2014-01-01 02:51:00,9.6,5.5,30.32,West,265,4.0,5.0,83,0.00,,,0.00,Wunderground v.1.15,2014-01-01 07:51:00,
2014-01-01 02:57:00,9.7,5.6,30.32,SW,215,4.0,5.0,83,0.00,,,0.00,Wunderground v.1.15,2014-01-01 07:57:00,
2014-01-01 03:02:00,9.9,5.8,30.32,West,269,4.0,5.0,83,0.00,,,0.00,Wunderground v.1.15,2014-01-01 08:02:00,
2014-01-01 03:07:00,10.1,5.7,30.32,SSW,212,4.0,7.0,82,0.00,,,0.00,Wunderground v.1.15,2014-01-01 08:07:00,
2014-01-01 03:08:00,10.2,5.8,30.32,WSW,256,4.0,7.0,82,0.00,,,0.00,Wunderground v.1.15,2014-01-01 08:08:00,
2014-01-01 03:14:00,10.3,5.9,30.32,SSW,195,4.0,6.0,82,0.00,,,0.00,Wunderground v.1.15,2014-01-01 08:14:00,
2014-01-01 03:19:00,10.4,6.0,30.32,West,281,4.0,7.0,82,0.00,,,0.00,Wunderground v.1.15,2014-01-01 08:19:00,
2014-01-01 03:24:00,10.5,5.8,30.32,WSW,256,4.0,4.0,81,0.00,,,0.00,Wunderground v.1.15,2014-01-01 08:24:00,
2014-01-01 03:29:00,10.6,5.9,30.32,SSW,207,3.0,6.0,81,0.00,,,0.00,Wunderground v.1.15,2014-01-01 08:29:00,
2014-01-01 03:34:00,10.7,6.0,30.32,SW,229,4.0,7.0,81,0.00,,,0.00,Wunderground v.1.15,2014-01-01 08:34:00,
2014-01-01 03:40:00,10.8,6.1,30.32,West,274,4.0,7.0,81,0.00,,,0.00,Wunderground v.1.15,2014-01-01 08:40:00,
2014-01-01 03:45:00,10.9,6.2,30.32,NW,305,4.0,6.0,81,0.00,,,0.00,Wunderground v.1.15,2014-01-01 08:45:00,
2014-01-01 03:50:00,11.0,6.0,30.32,WNW,293,4.0,7.0,80,0.00,,,0.00,Wunderground v.1.15,2014-01-01 08:50:00,
2014-01-01 03:55:00,11.2,6.2,30.32,West,264,4.0,6.0,80,0.00,,,0.00,Wunderground v.1.15,2014-01-01 08:55:00,
2014-01-01 04:00:00,11.3,6.3,30.32,West,276,4.0,6.0,80,0.00,,,0.00,Wunderground v.1.15,2014-01-01 09:00:00,
2014-01-01 04:05:00,11.4,6.2,30.32,NW,308,3.0,8.0,79,0.00,,,0.00,Wunderground v.1.15,2014-01-01 09:05:00,
2014-01-01 04:11:00,11.4,6.2,30.31,West,267,4.0,4.0,79,0.00,,,0.00,Wunderground v.1.15,2014-01-01 09:11:00,
2014-01-01 04:16:00,11.4,6.2,30.31,SSW,211,4.0,6.0,79,0.00,,,0.00,Wunderground v.1.15,2014-01-01 09:16:00,
2014-01-01 04:21:00,11.3,6.1,30.31,WNW,290,3.0,6.0,79,0.00,,,0.00,Wunderground v.1.15,2014-01-01 09:21:00,
2014-01-01 04:26:00,11.3,6.1,30.32,SW,215,3.0,6.0,79,0.00,,,0.00,Wunderground v.1.15,2014-01-01 09:26:00,
2014-01-01 04:31:00,11.4,6.2,30.32,SSE,165,3.0,3.0,79,0.00,,,0.00,Wunderground v.1.15,2014-01-01 09:31:00,
2014-01-01 04:37:00,11.4,6.2,30.32,WSW,242,4.0,7.0,79,0.00,,,0.00,Wunderground v.1.15,2014-01-01 09:37:00,
2014-01-01 04:42:00,11.4,6.2,30.32,WSW,248,4.0,8.0,79,0.00,,,0.00,Wunderground v.1.15,2014-01-01 09:42:00,
2014-01-01 04:47:00,11.4,6.2,30.32,WSW,252,4.0,8.0,79,0.00,,,0.00,Wunderground v.1.15,2014-01-01 09:47:00,
2014-01-01 04:52:00,11.4,6.2,30.32,WNW,285,4.0,5.0,79,0.00,,,0.00,Wunderground v.1.15,2014-01-01 09:52:00,
2014-01-01 04:57:00,11.5,6.2,30.32,SW,224,4.0,10.0,79,0.00,,,0.00,Wunderground v.1.15,2014-01-01 09:57:00,
2014-01-01 05:02:00,11.4,6.2,30.32,WNW,288,4.0,5.0,79,0.00,,,0.00,Wunderground v.1.15,2014-01-01 10:02:00,
2014-01-01 05:07:00,11.4,6.2,30.33,SW,219,3.0,5.0,79,0.00,,,0.00,Wunderground v.1.15,2014-01-01 10:07:00,
2014-01-01 05:12:00,11.4,6.2,30.33,South,187,3.0,13.0,79,0.00,,,0.00,Wunderground v.1.15,2014-01-01 10:12:00,
2014-01-01 05:17:00,11.5,6.2,30.33,West,277,4.0,13.0,79,0.00,,,0.00,Wunderground v.1.15,2014-01-01 10:17:00,
2014-01-01 05:22:00,11.5,6.5,30.33,WNW,300,3.0,13.0,80,0.00,,,0.00,Wunderground v.1.15,2014-01-01 10:22:00,
2014-01-01 05:27:00,11.5,6.2,30.33,WNW,283,3.0,13.0,79,0.00,,,0.00,Wunderground v.1.15,2014-01-01 10:27:00,
2014-01-01 05:32:00,11.5,6.2,30.33,NNW,345,4.0,13.0,79,0.00,,,0.00,Wunderground v.1.15,2014-01-01 10:32:00,
2014-01-01 05:38:00,11.5,6.0,30.33,WNW,290,5.0,13.0,78,0.00,,,0.00,Wunderground v.1.15,2014-01-01 10:38:00,
2014-01-01 05:43:00,11.3,5.8,30.33,West,280,4.0,13.0,78,0.00,,,0.00,Wunderground v.1.15,2014-01-01 10:43:00,
2014-01-01 05:48:00,11.2,6.0,30.33,WNW,299,3.0,13.0,79,0.00,,,0.00,Wunderground v.1.15,2014-01-01 10:48:00,
2014-01-01 05:53:00,11.1,5.9,30.33,West,276,4.0,13.0,79,0.00,,,0.00,Wunderground v.1.15,2014-01-01 10:53:00,
2014-01-01 05:58:00,11.1,5.9,30.33,WNW,293,4.0,13.0,79,0.00,,,0.00,Wunderground v.1.15,2014-01-01 10:58:00,
2014-01-01 06:04:00,11.1,5.9,30.33,NNW,333,4.0,13.0,79,0.00,,,0.00,Wunderground v.1.15,2014-01-01 11:04:00,
2014-01-01 06:09:00,10.9,5.7,30.34,SSW,209,3.0,13.0,79,0.00,,,0.00,Wunderground v.1.15,2014-01-01 11:09:00,
2014-01-01 06:14:00,10.9,5.7,30.34,WSW,254,3.0,13.0,79,0.00,,,0.00,Wunderground v.1.15,2014-01-01 11:14:00,
2014-01-01 06:19:00,10.8,5.6,30.34,WSW,249,3.0,13.0,79,0.00,,,0.00,Wunderground v.1.15,2014-01-01 11:19:00,
2014-01-01 06:24:00,10.8,5.6,30.34,West,279,3.0,13.0,79,0.00,,,0.00,Wunderground v.1.15,2014-01-01 11:24:00,
2014-01-01 06:30:00,10.6,5.4,30.34,WSW,238,3.0,13.0,79,0.00,,,0.00,Wunderground v.1.15,2014-01-01 11:30:00,
2014-01-01 06:35:00,10.6,5.4,30.34,SW,228,2.0,13.0,79,0.00,,,0.00,Wunderground v.1.15,2014-01-01 11:35:00,
2014-01-01 06:40:00,10.7,5.5,30.34,WNW,293,3.0,13.0,79,0.00,,,0.00,Wunderground v.1.15,2014-01-01 11:40:00,
2014-01-01 06:45:00,10.7,5.5,30.34,SSW,192,4.0,13.0,79,0.00,,,0.00,Wunderground v.1.15,2014-01-01 11:45:00,
2014-01-01 06:50:00,10.8,5.6,30.34,WNW,288,4.0,13.0,79,0.00,,,0.00,Wunderground v.1.15,2014-01-01 11:50:00,
2014-01-01 06:56:00,10.7,5.5,30.34,SE,142,3.0,13.0,79,0.00,,,0.00,Wunderground v.1.15,2014-01-01 11:56:00,
2014-01-01 07:01:00,10.7,5.5,30.34,SSW,198,3.0,3.0,79,0.00,,,0.00,Wunderground v.1.15,2014-01-01 12:01:00,
2014-01-01 07:06:00,10.5,5.3,30.34,NW,319,3.0,13.0,79,0.00,,,0.00,Wunderground v.1.15,2014-01-01 12:06:00,
2014-01-01 07:11:00,10.5,5.3,30.35,North,349,3.0,13.0,79,0.00,,,0.00,Wunderground v.1.15,2014-01-01 12:11:00,
2014-01-01 07:16:00,10.5,5.3,30.35,West,271,3.0,13.0,79,0.00,,,0.00,Wunderground v.1.15,2014-01-01 12:16:00,
2014-01-01 07:21:00,10.2,5.0,30.35,WSW,257,2.0,13.0,79,0.00,,,0.00,Wunderground v.1.15,2014-01-01 12:21:00,
2014-01-01 07:27:00,10.1,5.2,30.35,SW,228,2.0,13.0,80,0.00,,,0.00,Wunderground v.1.15,2014-01-01 12:27:00,
2014-01-01 07:32:00,10.1,5.2,30.35,West,265,2.0,13.0,80,0.00,,,0.00,Wunderground v.1.15,2014-01-01 12:32:00,
2014-01-01 07:37:00,10.1,5.2,30.35,West,281,2.0,13.0,80,0.00,,,0.00,Wunderground v.1.15,2014-01-01 12:37:00,
2014-01-01 07:42:00,10.0,5.1,30.35,South,186,2.0,13.0,80,0.00,,,0.00,Wunderground v.1.15,2014-01-01 12:42:00,
2014-01-01 07:47:00,10.2,5.3,30.35,SSW,195,2.0,13.0,80,0.00,,,0.00,Wunderground v.1.15,2014-01-01 12:47:00,
2014-01-01 07:53:00,10.2,5.3,30.36,SW,219,3.0,13.0,80,0.00,,,0.00,Wunderground v.1.15,2014-01-01 12:53:00,
2014-01-01 07:58:00,10.2,5.3,30.36,WSW,251,2.0,13.0,80,0.00,,,0.00,Wunderground v.1.15,2014-01-01 12:58:00,
2014-01-01 08:03:00,10.3,5.4,30.36,WSW,250,2.0,13.0,80,0.00,,,0.00,Wunderground v.1.15,2014-01-01 13:03:00,
2014-01-01 08:08:00,10.4,5.7,30.36,WSW,248,3.0,13.0,81,0.00,,,0.00,Wunderground v.1.15,2014-01-01 13:08:00,
2014-01-01 08:13:00,10.5,5.8,30.37,SSW,211,4.0,13.0,81,0.00,,,0.00,Wunderground v.1.15,2014-01-01 13:13:00,
2014-01-01 08:19:00,10.7,6.0,30.37,South,174,4.0,13.0,81,0.00,,,0.00,Wunderground v.1.15,2014-01-01 13:19:00,
2014-01-01 08:24:00,10.8,6.1,30.37,West,259,3.0,13.0,81,0.00,,,0.00,Wunderground v.1.15,2014-01-01 13:24:00,
2014-01-01 08:29:00,10.8,6.1,30.38,South,173,3.0,13.0,81,0.00,,,0.00,Wunderground v.1.15,2014-01-01 13:29:00,
2014-01-01 08:35:00,10.9,6.2,30.38,South,186,4.0,5.0,81,0.00,,,0.00,Wunderground v.1.15,2014-01-01 13:35:00,
2014-01-01 08:40:00,11.1,6.4,30.38,West,267,4.0,7.0,81,0.00,,,0.00,Wunderground v.1.15,2014-01-01 13:40:00,
2014-01-01 08:46:00,11.1,6.7,30.38,SW,214,3.0,4.0,82,0.00,,,0.00,Wunderground v.1.15,2014-01-01 13:46:00,
2014-01-01 08:52:00,11.1,6.7,30.39,SW,219,2.0,4.0,82,0.00,,,0.00,Wunderground v.1.15,2014-01-01 13:52:00,
2014-01-01 08:57:00,11.3,6.9,30.39,South,184,2.0,4.0,82,0.00,,,0.00,Wunderground v.1.15,2014-01-01 13:57:00,
2014-01-01 09:03:00,11.5,7.1,30.40,SW,221,3.0,11.0,82,0.00,,,0.00,Wunderground v.1.15,2014-01-01 14:03:00,
2014-01-01 09:09:00,11.7,7.3,30.39,West,278,3.0,11.0,82,0.00,,,0.00,Wunderground v.1.15,2014-01-01 14:09:00,
2014-01-01 09:15:00,12.0,7.6,30.39,SW,224,3.0,11.0,82,0.00,,,0.00,Wunderground v.1.15,2014-01-01 14:15:00,
2014-01-01 09:20:00,12.4,7.7,30.39,WSW,253,4.0,4.0,81,0.00,,,0.00,Wunderground v.1.15,2014-01-01 14:20:00,
2014-01-01 09:25:00,12.8,8.1,30.39,West,262,3.0,11.0,81,0.00,,,0.00,Wunderground v.1.15,2014-01-01 14:25:00,
2014-01-01 09:30:00,13.0,8.0,30.39,WSW,242,3.0,3.0,80,0.00,,,0.00,Wunderground v.1.15,2014-01-01 14:30:00,
2014-01-01 09:35:00,13.2,8.2,30.39,WSW,242,3.0,11.0,80,0.00,,,0.00,Wunderground v.1.15,2014-01-01 14:35:00,
2014-01-01 09:40:00,13.6,8.6,30.39,SSW,210,3.0,3.0,80,0.00,,,0.00,Wunderground v.1.15,2014-01-01 14:40:00,
2014-01-01 09:45:00,13.9,8.6,30.40,West,278,3.0,11.0,79,0.00,,,0.00,Wunderground v.1.15,2014-01-01 14:45:00,
2014-01-01 09:50:00,14.1,8.8,30.40,West,281,3.0,11.0,79,0.00,,,0.00,Wunderground v.1.15,2014-01-01 14:50:00,
2014-01-01 09:56:00,14.4,8.8,30.40,WSW,256,3.0,11.0,78,0.00,,,0.00,Wunderground v.1.15,2014-01-01 14:56:00,
2014-01-01 10:01:00,14.7,9.1,30.40,SW,216,2.0,2.0,78,0.00,,,0.00,Wunderground v.1.15,2014-01-01 15:01:00,
2014-01-01 10:06:00,14.9,8.7,30.40,SSW,193,3.0,11.0,76,0.00,,,0.00,Wunderground v.1.15,2014-01-01 15:06:00,
2014-01-01 10:11:00,15.1,8.9,30.41,South,181,3.0,11.0,76,0.00,,,0.00,Wunderground v.1.15,2014-01-01 15:11:00,
2014-01-01 10:16:00,15.4,9.2,30.41,WSW,243,3.0,11.0,76,0.00,,,0.00,Wunderground v.1.15,2014-01-01 15:16:00,
2014-01-01 10:21:00,15.8,9.3,30.40,West,273,3.0,11.0,75,0.00,,,0.00,Wunderground v.1.15,2014-01-01 15:21:00,
2014-01-01 10:27:00,16.0,9.8,30.40,WSW,255,3.0,11.0,76,0.00,,,0.00,Wunderground v.1.15,2014-01-01 15:27:00,
2014-01-01 10:32:00,16.0,9.5,30.41,West,262,3.0,11.0,75,0.00,,,0.00,Wunderground v.1.15,2014-01-01 15:32:00,
2014-01-01 10:37:00,16.0,9.2,30.41,West,273,4.0,11.0,74,0.00,,,0.00,Wunderground v.1.15,2014-01-01 15:37:00,
2014-01-01 10:42:00,16.0,9.5,30.40,WSW,242,5.0,11.0,75,0.00,,,0.00,Wunderground v.1.15,2014-01-01 15:42:00,
2014-01-01 10:47:00,16.4,10.2,30.40,NW,326,4.0,11.0,76,0.00,,,0.00,Wunderground v.1.15,2014-01-01 15:47:00,
2014-01-01 10:52:00,16.8,10.2,30.40,WSW,251,3.0,11.0,75,0.00,,,0.00,Wunderground v.1.15,2014-01-01 15:52:00,
2014-01-01 10:57:00,16.6,9.8,30.40,WNW,292,3.0,11.0,74,0.00,,,0.00,Wunderground v.1.15,2014-01-01 15:57:00,
2014-01-01 11:02:00,16.1,9.3,30.40,WSW,251,4.0,11.0,74,0.00,,,0.00,Wunderground v.1.15,2014-01-01 16:02:00,
2014-01-01 11:07:00,16.0,8.9,30.40,NW,319,5.0,11.0,73,0.00,,,0.00,Wunderground v.1.15,2014-01-01 16:07:00,
2014-01-01 11:12:00,15.9,9.4,30.40,SW,226,4.0,11.0,75,0.00,,,0.00,Wunderground v.1.15,2014-01-01 16:12:00,
2014-01-01 11:18:00,15.9,8.5,30.41,SSW,207,4.0,11.0,72,0.00,,,0.00,Wunderground v.1.15,2014-01-01 16:18:00,
2014-01-01 11:23:00,15.8,8.4,30.40,WNW,301,4.0,11.0,72,0.00,,,0.00,Wunderground v.1.15,2014-01-01 16:23:00,
2014-01-01 11:28:00,15.6,7.9,30.40,WNW,283,4.0,11.0,71,0.00,,,0.00,Wunderground v.1.15,2014-01-01 16:28:00,
2014-01-01 11:33:00,15.8,7.7,30.39,WSW,252,5.0,11.0,70,0.00,,,0.00,Wunderground v.1.15,2014-01-01 16:33:00,
2014-01-01 11:38:00,15.6,7.2,30.39,WNW,288,6.0,11.0,69,0.00,,,0.00,Wunderground v.1.15,2014-01-01 16:38:00,
2014-01-01 11:44:00,15.8,7.1,30.39,WNW,290,7.0,11.0,68,0.00,,,0.00,Wunderground v.1.15,2014-01-01 16:44:00,
2014-01-01 11:49:00,16.2,7.8,30.39,West,278,6.0,11.0,69,0.00,,,0.00,Wunderground v.1.15,2014-01-01 16:49:00,
2014-01-01 11:54:00,16.6,8.2,30.39,SW,217,5.0,13.0,69,0.00,,,0.00,Wunderground v.1.15,2014-01-01 16:54:00,
2014-01-01 11:59:00,16.7,8.0,30.38,SW,218,5.0,13.0,68,0.00,,,0.00,Wunderground v.1.15,2014-01-01 16:59:00,
2014-01-01 12:04:00,16.6,7.5,30.38,West,259,5.0,11.0,67,0.00,,,0.00,Wunderground v.1.15,2014-01-01 17:04:00,
2014-01-01 12:10:00,16.4,7.3,30.39,SW,222,6.0,11.0,67,0.00,,,0.00,Wunderground v.1.15,2014-01-01 17:10:00,
2014-01-01 12:15:00,16.3,6.9,30.38,WSW,256,6.0,11.0,66,0.00,,,0.00,Wunderground v.1.15,2014-01-01 17:15:00,
2014-01-01 12:20:00,16.3,7.3,30.38,WSW,255,6.0,11.0,67,0.00,,,0.00,Wunderground v.1.15,2014-01-01 17:20:00,
2014-01-01 12:25:00,16.4,7.7,30.38,West,278,4.0,11.0,68,0.00,,,0.00,Wunderground v.1.15,2014-01-01 17:25:00,
2014-01-01 12:30:00,16.6,7.5,30.38,ESE,120,4.0,11.0,67,0.00,,,0.00,Wunderground v.1.15,2014-01-01 17:30:00,
2014-01-01 12:35:00,16.9,8.2,30.39,WNW,288,4.0,11.0,68,0.00,,,0.00,Wunderground v.1.15,2014-01-01 17:35:00,
2014-01-01 12:41:00,17.1,8.0,30.38,SSW,200,4.0,4.0,67,0.00,,,0.00,Wunderground v.1.15,2014-01-01 17:41:00,
2014-01-01 12:46:00,17.6,8.5,30.38,West,280,3.0,11.0,67,0.00,,,0.00,Wunderground v.1.15,2014-01-01 17:46:00,
2014-01-01 12:51:00,17.4,7.3,30.38,WNW,294,3.0,3.0,64,0.00,,,0.00,Wunderground v.1.15,2014-01-01 17:51:00,
2014-01-01 12:56:00,16.7,7.0,30.38,WNW,294,5.0,11.0,65,0.00,,,0.00,Wunderground v.1.15,2014-01-01 17:56:00,
2014-01-01 13:02:00,16.4,7.0,30.39,WNW,292,6.0,11.0,66,0.00,,,0.00,Wunderground v.1.15,2014-01-01 18:02:00,
2014-01-01 13:07:00,16.4,7.3,30.38,West,271,6.0,12.0,67,0.00,,,0.00,Wunderground v.1.15,2014-01-01 18:07:00,
2014-01-01 13:12:00,16.6,7.5,30.38,NW,325,6.0,11.0,67,0.00,,,0.00,Wunderground v.1.15,2014-01-01 18:12:00,
2014-01-01 13:17:00,16.8,8.1,30.38,West,278,4.0,11.0,68,0.00,,,0.00,Wunderground v.1.15,2014-01-01 18:17:00,
2014-01-01 13:22:00,17.1,8.7,30.38,SE,131,4.0,11.0,69,0.00,,,0.00,Wunderground v.1.15,2014-01-01 18:22:00,
2014-01-01 13:27:00,17.0,8.6,30.38,West,274,4.0,11.0,69,0.00,,,0.00,Wunderground v.1.15,2014-01-01 18:27:00,
2014-01-01 13:33:00,17.0,8.9,30.38,WNW,284,4.0,11.0,70,0.00,,,0.00,Wunderground v.1.15,2014-01-01 18:33:00,
2014-01-01 13:38:00,17.1,9.0,30.37,SSW,210,4.0,11.0,70,0.00,,,0.00,Wunderground v.1.15,2014-01-01 18:38:00,
2014-01-01 13:43:00,17.0,8.9,30.37,WNW,297,4.0,11.0,70,0.00,,,0.00,Wunderground v.1.15,2014-01-01 18:43:00,
2014-01-01 13:48:00,16.8,8.7,30.37,West,260,4.0,11.0,70,0.00,,,0.00,Wunderground v.1.15,2014-01-01 18:48:00,
2014-01-01 13:53:00,16.8,9.0,30.37,South,179,5.0,11.0,71,0.00,,,0.00,Wunderground v.1.15,2014-01-01 18:53:00,
2014-01-01 13:59:00,16.8,9.3,30.37,ENE,58,5.0,11.0,72,0.00,,,0.00,Wunderground v.1.15,2014-01-01 18:59:00,
2014-01-01 14:04:00,16.9,9.4,30.37,SSW,201,4.0,11.0,72,0.00,,,0.00,Wunderground v.1.15,2014-01-01 19:04:00,
2014-01-01 14:09:00,17.0,9.5,30.37,WNW,285,3.0,11.0,72,0.00,,,0.00,Wunderground v.1.15,2014-01-01 19:09:00,
2014-01-01 14:14:00,16.9,9.7,30.37,South,186,3.0,11.0,73,0.00,,,0.00,Wunderground v.1.15,2014-01-01 19:14:00,
2014-01-01 14:19:00,16.9,9.4,30.38,SW,214,3.0,11.0,72,0.00,,,0.00,Wunderground v.1.15,2014-01-01 19:19:00,
2014-01-01 14:25:00,16.9,9.4,30.38,WNW,285,3.0,11.0,72,0.00,,,0.00,Wunderground v.1.15,2014-01-01 19:25:00,
2014-01-01 14:30:00,16.9,9.7,30.38,SW,229,3.0,11.0,73,0.00,,,0.00,Wunderground v.1.15,2014-01-01 19:30:00,
2014-01-01 14:35:00,17.0,9.8,30.38,NNW,330,3.0,11.0,73,0.00,,,0.00,Wunderground v.1.15,2014-01-01 19:35:00,
2014-01-01 14:40:00,17.3,9.8,30.38,South,186,3.0,11.0,72,0.00,,,0.00,Wunderground v.1.15,2014-01-01 19:40:00,
2014-01-01 14:45:00,17.4,9.9,30.38,SW,218,3.0,11.0,72,0.00,,,0.00,Wunderground v.1.15,2014-01-01 19:45:00,
2014-01-01 14:51:00,17.5,10.0,30.38,WNW,288,4.0,11.0,72,0.00,,,0.00,Wunderground v.1.15,2014-01-01 19:51:00,
2014-01-01 14:56:00,17.5,10.3,30.38,SSW,203,3.0,11.0,73,0.00,,,0.00,Wunderground v.1.15,2014-01-01 19:56:00,
2014-01-01 15:01:00,17.4,10.2,30.38,West,281,3.0,11.0,73,0.00,,,0.00,Wunderground v.1.15,2014-01-01 20:01:00,
2014-01-01 15:06:00,17.1,9.9,30.38,WNW,302,4.0,11.0,73,0.00,,,0.00,Wunderground v.1.15,2014-01-01 20:06:00,
2014-01-01 15:11:00,17.1,10.2,30.38,West,270,3.0,3.0,74,0.00,,,0.00,Wunderground v.1.15,2014-01-01 20:11:00,
2014-01-01 15:17:00,17.3,10.4,30.39,West,268,2.0,11.0,74,0.00,,,0.00,Wunderground v.1.15,2014-01-01 20:17:00,
2014-01-01 15:22:00,17.2,10.0,30.39,WSW,253,3.0,11.0,73,0.00,,,0.00,Wunderground v.1.15,2014-01-01 20:22:00,
2014-01-01 15:27:00,17.1,10.2,30.39,SW,224,2.0,11.0,74,0.00,,,0.00,Wunderground v.1.15,2014-01-01 20:27:00,
2014-01-01 15:32:00,17.1,10.2,30.38,WSW,245,2.0,11.0,74,0.00,,,0.00,Wunderground v.1.15,2014-01-01 20:32:00,
2014-01-01 15:37:00,17.2,10.6,30.38,WNW,287,2.0,11.0,75,0.00,,,0.00,Wunderground v.1.15,2014-01-01 20:37:00,
2014-01-01 15:42:00,17.2,10.6,30.38,WSW,238,2.0,11.0,75,0.00,,,0.00,Wunderground v.1.15,2014-01-01 20:42:00,
2014-01-01 15:47:00,17.1,10.2,30.38,SW,218,1.0,11.0,74,0.00,,,0.00,Wunderground v.1.15,2014-01-01 20:47:00,
2014-01-01 15:52:00,17.0,10.4,30.38,WSW,249,1.0,11.0,75,0.00,,,0.00,Wunderground v.1.15,2014-01-01 20:52:00,
2014-01-01 15:57:00,16.8,10.5,30.38,West,277,1.0,11.0,76,0.00,,,0.00,Wunderground v.1.15,2014-01-01 20:57:00,
2014-01-01 16:02:00,16.7,10.4,30.38,West,260,2.0,11.0,76,0.00,,,0.00,Wunderground v.1.15,2014-01-01 21:02:00,
2014-01-01 16:08:00,16.6,10.3,30.38,NW,315,2.0,11.0,76,0.00,,,0.00,Wunderground v.1.15,2014-01-01 21:08:00,
2014-01-01 16:13:00,16.5,10.3,30.38,WNW,284,2.0,11.0,76,0.00,,,0.00,Wunderground v.1.15,2014-01-01 21:13:00,
2014-01-01 16:18:00,16.5,10.3,30.39,West,263,2.0,11.0,76,0.00,,,0.00,Wunderground v.1.15,2014-01-01 21:18:00,
2014-01-01 16:23:00,16.4,10.2,30.39,West,276,1.0,11.0,76,0.00,,,0.00,Wunderground v.1.15,2014-01-01 21:23:00,
2014-01-01 16:28:00,16.4,10.4,30.39,SSW,211,1.0,11.0,77,0.00,,,0.00,Wunderground v.1.15,2014-01-01 21:28:00,
2014-01-01 16:34:00,16.3,10.4,30.39,SSW,194,1.0,11.0,77,0.00,,,0.00,Wunderground v.1.15,2014-01-01 21:34:00,
2014-01-01 16:39:00,16.2,10.5,30.39,West,276,1.0,11.0,78,0.00,,,0.00,Wunderground v.1.15,2014-01-01 21:39:00,
2014-01-01 16:44:00,16.1,10.7,30.39,WNW,282,1.0,11.0,79,0.00,,,0.00,Wunderground v.1.15,2014-01-01 21:44:00,
2014-01-01 16:49:00,15.9,10.8,30.39,West,259,1.0,11.0,80,0.00,,,0.00,Wunderground v.1.15,2014-01-01 21:49:00,
2014-01-01 16:54:00,15.8,11.0,30.39,WNW,291,1.0,11.0,81,0.00,,,0.00,Wunderground v.1.15,2014-01-01 21:54:00,
2014-01-01 17:00:00,15.7,11.2,30.39,WNW,291,1.0,11.0,82,0.00,,,0.00,Wunderground v.1.15,2014-01-01 22:00:00,
2014-01-01 17:05:00,15.6,11.1,30.39,NW,319,0.0,11.0,82,0.00,,,0.00,Wunderground v.1.15,2014-01-01 22:05:00,
2014-01-01 17:10:00,15.6,11.4,30.39,West,274,1.0,11.0,83,0.00,,,0.00,Wunderground v.1.15,2014-01-01 22:10:00,
2014-01-01 17:15:00,15.5,11.3,30.39,West,259,0.0,11.0,83,0.00,,,0.00,Wunderground v.1.15,2014-01-01 22:15:00,
2014-01-01 17:20:00,15.4,11.4,30.38,SW,214,0.0,11.0,84,0.00,,,0.00,Wunderground v.1.15,2014-01-01 22:20:00,
2014-01-01 17:25:00,15.4,11.4,30.38,SW,218,0.0,11.0,84,0.00,,,0.00,Wunderground v.1.15,2014-01-01 22:25:00,
2014-01-01 17:31:00,15.4,11.7,30.38,SW,218,0.0,11.0,85,0.00,,,0.00,Wunderground v.1.15,2014-01-01 22:31:00,
2014-01-01 17:36:00,15.3,11.6,30.38,SW,218,0.0,11.0,85,0.00,,,0.00,Wunderground v.1.15,2014-01-01 22:36:00,
2014-01-01 17:41:00,15.2,11.5,30.38,SW,218,0.0,11.0,85,0.00,,,0.00,Wunderground v.1.15,2014-01-01 22:41:00,
2014-01-01 17:46:00,15.2,11.5,30.38,SW,218,0.0,11.0,85,0.00,,,0.00,Wunderground v.1.15,2014-01-01 22:46:00,
2014-01-01 17:52:00,15.2,11.5,30.38,SW,218,0.0,11.0,85,0.00,,,0.00,Wunderground v.1.15,2014-01-01 22:52:00,
2014-01-01 17:57:00,15.2,11.8,30.38,SW,218,0.0,11.0,86,0.00,,,0.00,Wunderground v.1.15,2014-01-01 22:57:00,
2014-01-01 18:02:00,15.2,11.8,30.38,SW,218,0.0,11.0,86,0.00,,,0.00,Wunderground v.1.15,2014-01-01 23:02:00,
2014-01-01 18:07:00,15.1,11.7,30.38,SW,218,0.0,11.0,86,0.00,,,0.00,Wunderground v.1.15,2014-01-01 23:07:00,
2014-01-01 18:12:00,15.1,11.9,30.39,SW,218,0.0,11.0,87,0.00,,,0.00,Wunderground v.1.15,2014-01-01 23:12:00,
2014-01-01 18:17:00,15.1,11.9,30.39,West,259,0.0,11.0,87,0.00,,,0.00,Wunderground v.1.15,2014-01-01 23:17:00,
2014-01-01 18:23:00,15.0,11.8,30.38,SW,229,0.0,11.0,87,0.00,,,0.00,Wunderground v.1.15,2014-01-01 23:23:00,
2014-01-01 18:28:00,15.1,11.9,30.38,SW,228,0.0,11.0,87,0.00,,,0.00,Wunderground v.1.15,2014-01-01 23:28:00,
2014-01-01 18:33:00,15.0,11.8,30.38,SW,228,0.0,11.0,87,0.00,,,0.00,Wunderground v.1.15,2014-01-01 23:33:00,
2014-01-01 18:38:00,14.9,12.0,30.38,SW,228,0.0,11.0,88,0.00,,,0.00,Wunderground v.1.15,2014-01-01 23:38:00,
2014-01-01 18:43:00,14.9,12.0,30.39,SW,228,0.0,11.0,88,0.00,,,0.00,Wunderground v.1.15,2014-01-01 23:43:00,
2014-01-01 18:48:00,14.8,11.9,30.39,SW,228,0.0,11.0,88,0.00,,,0.00,Wunderground v.1.15,2014-01-01 23:48:00,
2014-01-01 18:53:00,14.7,11.8,30.39,SW,228,0.0,11.0,88,0.00,,,0.00,Wunderground v.1.15,2014-01-01 23:53:00,
2014-01-01 18:58:00,14.7,11.8,30.39,SW,228,0.0,11.0,88,0.00,,,0.00,Wunderground v.1.15,2014-01-01 23:58:00,
2014-01-01 19:03:00,14.7,12.0,30.39,SW,228,0.0,11.0,89,0.00,,,0.00,Wunderground v.1.15,2014-01-02 00:03:00,
2014-01-01 19:08:00,14.8,12.1,30.39,SW,226,0.0,11.0,89,0.00,,,0.00,Wunderground v.1.15,2014-01-02 00:08:00,
2014-01-01 19:13:00,14.8,12.1,30.39,SW,225,0.0,11.0,89,0.00,,,0.00,Wunderground v.1.15,2014-01-02 00:13:00,
2014-01-01 19:19:00,14.8,12.1,30.39,SSW,212,0.0,11.0,89,0.00,,,0.00,Wunderground v.1.15,2014-01-02 00:19:00,
2014-01-01 19:24:00,14.8,12.4,30.39,SSW,212,0.0,11.0,90,0.00,,,0.00,Wunderground v.1.15,2014-01-02 00:24:00,
2014-01-01 19:29:00,14.8,12.4,30.40,SSW,212,0.0,11.0,90,0.00,,,0.00,Wunderground v.1.15,2014-01-02 00:29:00,
2014-01-01 19:34:00,14.9,12.5,30.40,SSW,212,0.0,11.0,90,0.00,,,0.00,Wunderground v.1.15,2014-01-02 00:34:00,
2014-01-01 19:39:00,14.8,12.4,30.40,SW,214,0.0,11.0,90,0.00,,,0.00,Wunderground v.1.15,2014-01-02 00:39:00,
2014-01-01 19:44:00,14.8,12.4,30.40,SSW,212,0.0,11.0,90,0.00,,,0.00,Wunderground v.1.15,2014-01-02 00:44:00,
2014-01-01 19:50:00,14.9,12.5,30.40,SSW,212,0.0,11.0,90,0.00,,,0.00,Wunderground v.1.15,2014-01-02 00:50:00,
2014-01-01 19:55:00,14.9,12.5,30.40,SSW,212,0.0,11.0,90,0.00,,,0.00,Wunderground v.1.15,2014-01-02 00:55:00,
2014-01-01 20:00:00,14.9,12.5,30.39,SSW,212,0.0,11.0,90,0.00,,,0.00,Wunderground v.1.15,2014-01-02 01:00:00,
2014-01-01 20:05:00,14.9,12.5,30.40,SSW,212,0.0,11.0,90,0.00,,,0.00,Wunderground v.1.15,2014-01-02 01:05:00,
2014-01-01 20:11:00,14.9,12.5,30.39,SSW,212,0.0,11.0,90,0.00,,,0.00,Wunderground v.1.15,2014-01-02 01:11:00,
2014-01-01 20:16:00,14.9,12.5,30.39,SSW,212,0.0,11.0,90,0.00,,,0.00,Wunderground v.1.15,2014-01-02 01:16:00,
2014-01-01 20:21:00,14.9,12.5,30.39,SSW,211,0.0,11.0,90,0.00,,,0.00,Wunderground v.1.15,2014-01-02 01:21:00,
2014-01-01 20:26:00,14.9,12.5,30.39,SSW,211,0.0,11.0,90,0.00,,,0.00,Wunderground v.1.15,2014-01-02 01:26:00,
2014-01-01 20:31:00,14.9,12.7,30.38,SW,232,0.0,11.0,91,0.00,,,0.00,Wunderground v.1.15,2014-01-02 01:31:00,
2014-01-01 20:36:00,14.9,12.7,30.38,SW,232,0.0,11.0,91,0.00,,,0.00,Wunderground v.1.15,2014-01-02 01:36:00,
2014-01-01 20:42:00,14.9,12.7,30.38,SW,232,0.0,11.0,91,0.00,,,0.00,Wunderground v.1.15,2014-01-02 01:42:00,
2014-01-01 20:47:00,14.9,12.7,30.38,SW,232,0.0,11.0,91,0.00,,,0.00,Wunderground v.1.15,2014-01-02 01:47:00,
2014-01-01 20:52:00,14.9,12.7,30.38,SW,231,0.0,11.0,91,0.00,,,0.00,Wunderground v.1.15,2014-01-02 01:52:00,
2014-01-01 20:57:00,14.9,12.7,30.38,SW,232,0.0,11.0,91,0.00,,,0.00,Wunderground v.1.15,2014-01-02 01:57:00,
2014-01-01 21:03:00,14.8,12.6,30.38,SW,232,0.0,11.0,91,0.00,,,0.00,Wunderground v.1.15,2014-01-02 02:03:00,
2014-01-01 21:08:00,14.9,12.7,30.38,SW,231,0.0,11.0,91,0.00,,,0.00,Wunderground v.1.15,2014-01-02 02:08:00,
2014-01-01 21:13:00,14.8,12.6,30.38,SW,231,0.0,11.0,91,0.00,,,0.00,Wunderground v.1.15,2014-01-02 02:13:00,
2014-01-01 21:18:00,14.9,12.7,30.38,SW,232,0.0,11.0,91,0.00,,,0.00,Wunderground v.1.15,2014-01-02 02:18:00,
2014-01-01 21:23:00,14.9,12.7,30.38,SW,232,0.0,11.0,91,0.00,,,0.00,Wunderground v.1.15,2014-01-02 02:23:00,
2014-01-01 21:28:00,14.9,12.7,30.37,SW,232,0.0,11.0,91,0.00,,,0.00,Wunderground v.1.15,2014-01-02 02:28:00,
2014-01-01 21:34:00,15.0,12.8,30.37,SW,231,0.0,11.0,91,0.00,,,0.00,Wunderground v.1.15,2014-01-02 02:34:00,
2014-01-01 21:39:00,15.0,12.8,30.37,SW,232,0.0,11.0,91,0.00,,,0.00,Wunderground v.1.15,2014-01-02 02:39:00,
2014-01-01 21:44:00,15.0,12.8,30.37,SW,231,0.0,11.0,91,0.00,,,0.00,Wunderground v.1.15,2014-01-02 02:44:00,
2014-01-01 21:49:00,14.9,12.7,30.37,SW,232,0.0,11.0,91,0.00,,,0.00,Wunderground v.1.15,2014-01-02 02:49:00,
2014-01-01 21:54:00,14.9,12.7,30.37,SW,232,0.0,11.0,91,0.00,,,0.00,Wunderground v.1.15,2014-01-02 02:54:00,
2014-01-01 22:00:00,14.9,12.7,30.37,SW,232,0.0,11.0,91,0.00,,,0.00,Wunderground v.1.15,2014-01-02 03:00:00,
2014-01-01 22:05:00,14.9,12.7,30.37,SW,232,0.0,11.0,91,0.00,,,0.00,Wunderground v.1.15,2014-01-02 03:05:00,
2014-01-01 22:10:00,14.9,12.7,30.37,ENE,68,0.0,11.0,91,0.00,,,0.00,Wunderground v.1.15,2014-01-02 03:10:00,
2014-01-01 22:15:00,14.8,12.6,30.37,ENE,68,0.0,11.0,91,0.00,,,0.00,Wunderground v.1.15,2014-01-02 03:15:00,
2014-01-01 22:20:00,14.8,12.6,30.36,ENE,68,0.0,11.0,91,0.00,,,0.00,Wunderground v.1.15,2014-01-02 03:20:00,
2014-01-01 22:26:00,14.8,12.6,30.36,ENE,68,0.0,11.0,91,0.00,,,0.00,Wunderground v.1.15,2014-01-02 03:26:00,
2014-01-01 22:31:00,14.8,12.6,30.37,ENE,68,0.0,11.0,91,0.00,,,0.00,Wunderground v.1.15,2014-01-02 03:31:00,
2014-01-01 22:36:00,14.8,12.6,30.36,ENE,68,0.0,11.0,91,0.00,,,0.00,Wunderground v.1.15,2014-01-02 03:36:00,
2014-01-01 22:41:00,14.8,12.6,30.36,ENE,68,0.0,11.0,91,0.00,,,0.00,Wunderground v.1.15,2014-01-02 03:41:00,
2014-01-01 22:46:00,14.8,12.6,30.36,ENE,68,0.0,11.0,91,0.00,,,0.00,Wunderground v.1.15,2014-01-02 03:46:00,
2014-01-01 22:52:00,14.7,12.6,30.36,ENE,68,0.0,11.0,91,0.00,,,0.00,Wunderground v.1.15,2014-01-02 03:52:00,
2014-01-01 22:57:00,14.7,12.6,30.36,ENE,74,0.0,11.0,91,0.00,,,0.00,Wunderground v.1.15,2014-01-02 03:57:00,
2014-01-01 23:02:00,14.7,12.6,30.36,NNW,347,0.0,11.0,91,0.00,,,0.00,Wunderground v.1.15,2014-01-02 04:02:00,
2014-01-01 23:08:00,14.5,12.4,30.36,NNW,347,0.0,11.0,91,0.00,,,0.00,Wunderground v.1.15,2014-01-02 04:08:00,
2014-01-01 23:13:00,14.4,12.3,30.35,NNW,345,0.0,11.0,91,0.00,,,0.00,Wunderground v.1.15,2014-01-02 04:13:00,
2014-01-01 23:18:00,14.3,12.2,30.35,NNW,347,0.0,11.0,91,0.00,,,0.00,Wunderground v.1.15,2014-01-02 04:18:00,
2014-01-01 23:23:00,14.2,12.1,30.35,NNW,347,0.0,11.0,91,0.00,,,0.00,Wunderground v.1.15,2014-01-02 04:23:00,
2014-01-01 23:28:00,14.1,12.0,30.35,NNW,346,0.0,11.0,91,0.00,,,0.00,Wunderground v.1.15,2014-01-02 04:28:00,
2014-01-01 23:33:00,14.0,11.9,30.34,ENE,75,0.0,11.0,91,0.00,,,0.00,Wunderground v.1.15,2014-01-02 04:33:00,
2014-01-01 23:38:00,13.9,11.8,30.34,ENE,75,0.0,11.0,91,0.00,,,0.00,Wunderground v.1.15,2014-01-02 04:38:00,
2014-01-01 23:44:00,13.9,11.8,30.34,ENE,75,0.0,11.0,91,0.00,,,0.00,Wunderground v.1.15,2014-01-02 04:44:00,
2014-01-01 23:49:00,13.8,11.4,30.33,NNW,328,0.0,11.0,90,0.00,,,0.00,Wunderground v.1.15,2014-01-02 04:49:00,
2014-01-01 23:54:00,13.7,11.3,30.33,NNW,328,0.0,11.0,90,0.00,,,0.00,Wunderground v.1.15,2014-01-02 04:54:00,
2014-01-01 23:59:00,13.6,11.2,30.33,NNW,329,0.0,11.0,90,0.00,,,0.00,Wunderground v.1.15,2014-01-02 04:59:00,